Hourly Data Report for October 01, 2017

All times are specified in Local Standard Time (LST). Add 1 hour to adjust for Daylight Saving Time where and when it is observed.

SPRAGUE
MANITOBA

49°01'25.000" N
95°35'54.009" W
328.80 m
5022759
71449
WSU

Download Data

Hourly Data (October 2017)
Hourly Data Report for October 1, 2017
Temp Definition
°C
Dew Point Temp Definition
°C
Rel Hum Definition
%
Wind Dir Definition
10's deg

Wind Spd Definition
km/h
Visibility Definition
km
Stn Press Definition
kPa
Hmdx Definition


Wind Chill Definition


Weather Definition


TIME
00:00 15.7 8.7 63 15 14   97.34     LegendNANA
01:00 15.5 8.7 64 15 14   97.28     LegendNANA
02:00 14.8 8.6 66 15 12   97.20     LegendNANA
03:00 14.5 8.6 68 15 12   97.09     LegendNANA
04:00 14.1 8.6 69 15 12   97.03     LegendNANA
05:00 14.1 8.6 69 14 13   96.96     LegendNANA
06:00 13.9 8.7 71 14 14   96.94     LegendNANA
07:00 14.4 8.9 69 14 14   96.93     LegendNANA
08:00 14.6 9.4 71 15 13   96.91     LegendNANA
09:00 13.3 11.7 90 16 14   96.92     LegendNANA
10:00 13.6 12.3 92 14 14   96.86     LegendNANA
11:00 13.8 12.4 91 15 15   96.82     LegendNANA
12:00 13.5 12.3 93 14 12   96.74     LegendNANA
13:00 13.1 12.0 93 14 15   96.66     LegendNANA
14:00 13.0 12.0 94 14 11   96.61     LegendNANA
15:00 13.5 12.1 92 15 11   96.58     LegendNANA
16:00 13.7 12.1 90 14 12   96.58     LegendNANA
17:00 13.3 12.1 92 14 8   96.60     LegendNANA
18:00 12.8 12.0 95 15 10   96.61     LegendNANA
19:00 12.8 12.0 95 14 10   96.61     LegendNANA
20:00 13.0 12.3 96 14 11   96.62     LegendNANA
21:00 13.3 12.7 96 11 7   96.62     LegendNANA
22:00 14.1 13.3 95 13 9   96.61     LegendNANA
23:00 14.3 13.4 94 13 8   96.62     LegendNANA

Notes on Data Quality.

Legend

  • E = Estimated
  • M = Missing
  • NA = Not Available
  • ‡ = Partner data that is not subject to review by the National Climate Archives
Date modified: